"Pseudo-MPEC" for CDJ71C2

Created 2025 Oct 6 7:35:10 UT using Find_Orb

Click here for an explanation of pseudo-MPECs

 
 Astrometry: 
     CDJ71C2*1C2025 10 02.40074802 13 05.441+01 51 57.60   ~A2AZ 20.99GVNEOCPG96
     CDJ71C2 1C2025 10 02.41111102 13 08.706+01 52 54.91   ~A2AZx20.91GVNEOCPG96
     CDJ71C2 1C2025 10 02.41628902 13 10.384+01 53 26.30   ~A2AZ 21.38GVNEOCPG96
     CDJ71C2 KC2025 10 02.48841102 13 33.575+02 00 19.91   ~A2CK 21.30GVNEOCPV06
     CDJ71C2 KC2025 10 02.48985802 13 34.057+02 00 28.26   ~A2CK 21.23GVNEOCPV06
     CDJ71C2 KC2025 10 02.49130302 13 34.525+02 00 36.58   ~A2CK 21.14GVNEOCPV06
     CDJ71C2  C2025 10 02.49700302 13 39.758+02 01 25.56   ~A2EZ 21.26wXNEOCPF51
     CDJ71C2  C2025 10 02.51066702 13 44.057+02 02 44.00   ~A2EZ 21.18wXNEOCPF51
     CDJ71C2  C2025 10 02.53766102 13 52.561+02 05 19.27   ~A2EZ 21.45wXNEOCPF51
     CDJ71C2 |C2025 10 03.30704002 18 23.850+03 21 34.20   ~A38Z 21.0 GVNEOCP807
     CDJ71C2 |C2025 10 03.31587002 18 26.730+03 22 26.50   ~A38Z 21.2 GVNEOCP807
     CDJ71C2 |C2025 10 03.32470802 18 29.640+03 23 19.00   ~A38Z 21.1 GVNEOCP807
     CDJ71C2 KC2025 10 03.44321802 19 11.924+03 33 36.29   ~A3BK 21.37GVNEOCPI52
     CDJ71C2 KC2025 10 03.44682202 19 13.102+03 33 58.18   ~A3BK 20.97GVNEOCPI52
     CDJ71C2 KC2025 10 03.45043802 19 14.300+03 34 19.45   ~A3BK 21.02GVNEOCPI52
     CDJ71C2 KC2025 10 03.45404402 19 15.496+03 34 41.09   ~A3BK 21.06GVNEOCPI52
     CDJ71C2  C2025 10 03.46090602 19 17.594+03 35 19.74   ~A3Bo 20.8 GWNEOCPH01
     CDJ71C2  C2025 10 03.46453602 19 18.802+03 35 41.29   ~A3Bo 20.6 GWNEOCPH01
     CDJ71C2  C2025 10 03.47447702 19 22.149+03 36 40.65   ~A3Bo 21.1 GWNEOCPH01
     CDJ71C2  C2025 10 03.48138602 19 24.475+03 37 21.91   ~A3Bo 20.9 GWNEOCPH01

Station data:
(807) Cerro Tololo Observatory, La Serena  (S30.169133 W70.805900)  Chile.
   Observer R. Holmes. 0.61-m f/6.5 astrograph + CCD.
(F51) Pan-STARRS 1, Haleakala  (N20.707234 W156.255910)  US/Hawaii.
   Observers J. Herman, T. Lowe, P. Minguez, A. Schultz, I. Smith. Measurers
   K. Chambers, T. de Boer, J. Fairlamb, H. Gao, M. Huber, C.-C. Lin, E.
   Magnier, Y. Ramanjooloo, R. Wainscoat, R. Weryk. 1.8-m Ritchey-Chrétien +
   CCD.
(G96) Mt. Lemmon Survey  (N32.442729 W110.788720)  US/Arizona.  Observer E.
   J. Christensen. Measurers T. Beuden, V. F. Carvajal, D. Fay, J. B.
   Fazekas, D. C. Fuls, A. R. Gibbs, A. D. Grauer, H. Gröller, J. K. Hogan,
   R. A. Kowalski, S. M. Larson, G. J. Leonard, D. Rankin, R. L. Seaman, F.
   C. Shelly, K. W. Wierzchoś. 1.5-m reflector + 10K CCD.
(H01) Magdalena Ridge Observatory, Socorro  (N33.984833 W107.189333)  US/New
   Mexico.  Observers W. H. Ryan, E. V. Ryan. Measurer W. H. Ryan. 2.4-m
   f/8.9 reflector + CCD.
(I52) Steward Observatory, Mt. Lemmon Station  (N32.442570 W110.788920)
   US/Arizona. Measurers T. Beuden, V. F. Carvajal, D. Fay, J. B. Fazekas, D.
   C. Fuls, A. R. Gibbs, A. D. Grauer, H. Gröller, J. K. Hogan, R. A.
   Kowalski, S. M. Larson, G. J. Leonard, D. Rankin, R. L. Seaman, F. C.
   Shelly, K. W. Wierzchoś. 1.0-m prime focus + CCD.
(V06) Catalina Sky Survey-Kuiper  (N32.416871 W110.732550)  US/Arizona.
   Measurers T. Beuden, V. F. Carvajal, D. Fay, J. B. Fazekas, D. C. Fuls, A.
   R. Gibbs, A. D. Grauer, H. Gröller, J. K. Hogan, R. A. Kowalski, S. M.
   Larson, G. J. Leonard, D. Rankin, R. L. Seaman, F. C. Shelly, K. W.
   Wierzchoś. 1.55-m reflector + CCD.

Orbital elements:  CDJ71C2
   Perihelion 2025 Oct 23.423498 +/- 0.247 TT = 10:09:50.1 (JD 2460971.923498)
Epoch 2025 Oct  3.0 TT = JDT 2460951.5   Earth MOID: 0.0760   Ma: 0.0842
M 353.660768920 +/- 0.12            (J2000 ecliptic)             AutoNEOCP
n   0.310389103 +/- 0.0027          Peri.   13.301746 +/- 0.29
a   2.160387911 +/- 0.0127          Node    20.434889 +/- 0.029
e   0.50559470 +/- 0.00254          Incl.    6.350825 +/- 0.015
P   3.17539                H 24.97  G  0.15   U  8.8
q 1.068107227 +/- 0.000796    Q 3.252668596 +/- 0.0247
19 of 20 observations 2025 Oct. 2-3 (25.9 hr); mean residual 0".13
Residuals in arcseconds: 
251002 G96  .07-  .07+    251002 F51  .02+  .07-    251003 I52  .17-  .09-    
251002 G96( .47-  1.9-)   251002 F51  .17-  .08-    251003 I52  .20-  .05+    
251002 G96  .01-  .18-    251003 807  .19+  .11+    251003 H01  .06+  .03-    
251002 V06  .08+  .17+    251003 807  .01-  .01+    251003 H01  .05-  .11-    
251002 V06  .24+  .22+    251003 807  .10+  .05+    251003 H01  .08+  .00     
251002 V06  .19+  .25+    251003 I52  .11+  .22-    251003 H01  .06+  .07+    
251002 F51  .06+  .05+    251003 I52  .14-  .19+    

Ephemerides (geocentric):
Date (UTC) HH   RA             Dec           delta  r     elong  mag " sig PA
---- --------  ------------   ------------  ------ ------ -----  --- --------
2025 10 06 08  02 37 19.123   +08 36 37.36  .09727 1.0870 152.6 21.2 16.8  43
2025 10 06 09  02 37 35.462   +08 41 10.33  .09721 1.0869 152.6 21.2 17.3  43
2025 10 06 10  02 37 51.820   +08 45 43.58  .09715 1.0868 152.5 21.2 17.7  43
2025 10 06 11  02 38 08.198   +08 50 17.10  .09709 1.0867 152.5 21.2 18.2  43
2025 10 06 12  02 38 24.595   +08 54 50.90  .09703 1.0866 152.4 21.2 18.6  43
2025 10 06 13  02 38 41.011   +08 59 24.97  .09697 1.0865 152.4 21.2 19.1  43
2025 10 06 14  02 38 57.446   +09 03 59.31  .09691 1.0864 152.4 21.2 19.6  43
2025 10 06 15  02 39 13.901   +09 08 33.92  .09686 1.0863 152.3 21.2 20.1  43
2025 10 06 16  02 39 30.375   +09 13 08.79  .09680 1.0863 152.3 21.2 20.5  43
2025 10 06 17  02 39 46.868   +09 17 43.93  .09674 1.0862 152.3 21.2 21.0  43
2025 10 06 18  02 40 03.380   +09 22 19.33  .09669 1.0861 152.2 21.2 21.5  43
2025 10 06 19  02 40 19.911   +09 26 54.98  .09663 1.0860 152.2 21.2 22.0  43
2025 10 06 20  02 40 36.461   +09 31 30.90  .09658 1.0859 152.2 21.2 22.5  43
2025 10 06 21  02 40 53.030   +09 36 07.07  .09652 1.0858 152.1 21.2 23.1  43
2025 10 06 22  02 41 09.619   +09 40 43.49  .09647 1.0857 152.1 21.2 23.6  43
2025 10 06 23  02 41 26.226   +09 45 20.15  .09641 1.0856 152.1 21.2 24.1  43
2025 10 07 00  02 41 42.852   +09 49 57.07  .09636 1.0856 152.0 21.2 24.6  43
2025 10 07 01  02 41 59.497   +09 54 34.23  .09630 1.0855 152.0 21.2 25.2  43
2025 10 07 02  02 42 16.161   +09 59 11.63  .09625 1.0854 151.9 21.2 25.7  43
2025 10 07 03  02 42 32.844   +10 03 49.27  .09620 1.0853 151.9 21.2 26.3  43
2025 10 07 04  02 42 49.546   +10 08 27.15  .09615 1.0852 151.9 21.2 26.8  43
2025 10 07 05  02 43 06.267   +10 13 05.27  .09609 1.0851 151.8 21.2 27.4  43
2025 10 07 06  02 43 23.006   +10 17 43.61  .09604 1.0850 151.8 21.2 28.0  43
2025 10 07 07  02 43 39.764   +10 22 22.19  .09599 1.0849 151.8 21.2 28.6  43
2025 10 07 08  02 43 56.541   +10 27 01.00  .09594 1.0849 151.7 21.2 29.1  43
2025 10 07 09  02 44 13.337   +10 31 40.02  .09589 1.0848 151.7 21.2 29.7  43
2025 10 07 10  02 44 30.151   +10 36 19.28  .09584 1.0847 151.6 21.2 30.3  43
2025 10 07 11  02 44 46.984   +10 40 58.75  .09579 1.0846 151.6 21.2 30.9  43
2025 10 07 12  02 45 03.835   +10 45 38.44  .09574 1.0845 151.6 21.2 31.5  43
2025 10 07 13  02 45 20.705   +10 50 18.34  .09569 1.0844 151.5 21.2 32.1  43
2025 10 07 14  02 45 37.593   +10 54 58.46  .09564 1.0844 151.5 21.2 32.8  43
2025 10 07 15  02 45 54.500   +10 59 38.78  .09559 1.0843 151.4 21.2 33.4  43
2025 10 07 16  02 46 11.426   +11 04 19.31  .09555 1.0842 151.4 21.2 34.0  43
2025 10 07 17  02 46 28.369   +11 09 00.05  .09550 1.0841 151.4 21.2 34.7  43
2025 10 07 18  02 46 45.332   +11 13 40.99  .09545 1.0840 151.3 21.2 35.3  43
2025 10 07 19  02 47 02.312   +11 18 22.13  .09540 1.0839 151.3 21.2 36.0  43
2025 10 07 20  02 47 19.311   +11 23 03.46  .09536 1.0838 151.2 21.2 36.6  43
2025 10 07 21  02 47 36.328   +11 27 44.99  .09531 1.0838 151.2 21.2 37.3  43
2025 10 07 22  02 47 53.363   +11 32 26.71  .09527 1.0837 151.2 21.2 38.0  43
2025 10 07 23  02 48 10.417   +11 37 08.62  .09522 1.0836 151.1 21.2 38.6  43
2025 10 08 00  02 48 27.488   +11 41 50.72  .09517 1.0835 151.1 21.2 39.3  43
2025 10 08 01  02 48 44.578   +11 46 33.00  .09513 1.0834 151.0 21.2 40.0  43
2025 10 08 02  02 49 01.686   +11 51 15.46  .09509 1.0834 151.0 21.2 40.7  43
2025 10 08 03  02 49 18.811   +11 55 58.10  .09504 1.0833 151.0 21.2 41.4  43
2025 10 08 04  02 49 35.955   +12 00 40.91  .09500 1.0832 150.9 21.2 42.1  43
2025 10 08 05  02 49 53.117   +12 05 23.90  .09496 1.0831 150.9 21.2 42.8  43
2025 10 08 06  02 50 10.296   +12 10 07.06  .09491 1.0830 150.8 21.2 43.6  43
2025 10 08 07  02 50 27.494   +12 14 50.38  .09487 1.0829 150.8 21.2 44.3  43